Wind_Speed
12 12 12 11 10 9 8 7 7 7 7 5 4 4 5 4 4 5 5 5 5 6 6 6 6 8 9 9 9 10 10 11 11 11 12 12 13 13 13 14 14 14 14 15 15 15 16 16 16
13 13 13 13 12 10 9 9 9 8 8 6 6 5 6 6 6 6 6 6 6 6 7 7 7 8 9 10 10 10 11 12 12 12 13 13 14 14 14 15 15 15 15 16 16 16 17 17 17
15 14 14 14 13 10 9 10 10 9 9 8 8 7 8 8 8 8 7 7 7 7 8 9 9 9 10 11 11 11 12 12 13 13 14 14 15 15 15 15 16 16 17 17 18 18 18 18 18
16 16 15 14 12 11 10 11 11 10 10 10 9 8 9 9 9 9 9 8 9 9 10 10 10 10 11 11 11 12 12 12 13 14 14 15 16 16 16 17 17 18 19 19 19 19 19 20 20
16 16 16 14 12 11 11 12 12 12 11 10 10 9 9 9 9 9 9 9 10 10 10 10 11 11 11 11 12 12 13 13 14 14 15 15 16 17 17 18 18 19 20 20 20 21 21 21 22
16 15 16 14 12 12 12 13 13 13 11 11 10 10 9 9 9 9 10 9 10 10 10 11 11 11 11 12 12 12 13 14 14 15 16 16 17 18 18 19 19 20 21 21 21 22 23 23 24
16 16 16 14 13 13 13 13 13 12 13 12 12 11 11 11 11 11 12 11 11 12 11 11 12 12 12 13 13 14 14 15 16 16 16 17 18 19 19 20 20 20 21 22 23 23 23 24 25
17 17 16 14 13 13 13 13 13 13 12 12 12 13 12 12 11 12 12 12 12 12 12 13 13 13 14 14 14 15 16 17 17 17 17 18 19 20 20 20 21 21 22 23 23 23 24 24 25
17 17 16 15 14 14 14 13 13 12 12 12 13 14 13 13 12 12 12 12 12 13 14 14 14 15 14 14 15 16 17 17 17 17 18 19 19 20 20 21 21 22 22 23 23 24 24 25 25
15 15 15 14 14 14 13 12 12 11 11 12 13 13 12 13 13 12 12 13 13 14 14 14 14 14 15 16 16 17 18 18 17 18 19 20 20 21 21 21 22 22 23 23 24 25 26 26 26
14 14 13 13 14 13 13 12 11 10 11 12 12 11 10 11 12 12 12 13 13 14 14 15 15 15 16 17 17 18 18 18 18 19 20 20 21 21 22 22 22 23 23 24 25 26 27 27 27
11 11 11 11 12 12 12 12 11 11 11 11 11 11 10 11 12 12 12 13 13 14 15 15 15 16 17 17 18 18 19 19 19 20 21 21 21 22 23 24 24 24 25 25 26 27 27 28 28
8 8 9 10 10 11 11 11 12 12 12 12 12 11 12 12 12 12 13 14 14 15 15 16 17 17 18 18 18 18 19 20 20 21 21 22 22 22 24 24 25 26 26 27 27 27 28 29 29
7 7 8 9 10 11 11 12 12 12 12 13 13 13 13 13 13 14 14 15 15 16 16 16 17 18 18 18 19 19 20 20 21 21 21 22 22 23 24 25 26 26 27 28 28 29 30 30 30
7 7 8 9 9 10 11 12 12 11 12 12 12 13 14 14 15 15 15 15 16 17 17 18 18 18 18 19 19 20 20 21 22 21 21 22 23 24 24 25 26 26 27 28 29 31 31 31 31
6 7 7 9 10 10 11 11 12 11 11 11 11 12 14 15 16 17 17 17 18 18 18 19 19 18 18 19 19 19 20 22 22 22 23 23 24 25 25 25 26 27 27 29 29 30 31 31 31
7 7 8 9 10 11 11 11 11 11 12 12 12 13 14 16 17 18 18 19 19 19 19 20 19 19 19 19 19 20 20 22 23 23 23 24 24 25 26 26 27 28 28 29 29 29 30 30 31
6 8 9 10 11 11 12 12 12 12 13 13 13 14 15 16 18 19 20 20 21 21 21 21 21 20 19 18 19 21 22 22 22 23 24 24 25 25 26 27 27 28 29 29 29 29 30 30 30
7 9 10 10 11 12 12 12 12 13 14 14 15 16 16 17 18 19 20 20 21 22 22 23 21 20 18 19 20 22 22 22 23 23 24 24 25 26 27 27 28 28 29 29 29 29 28 28 27
7 8 10 11 12 13 13 13 13 14 15 15 16 17 17 18 18 19 20 21 21 22 24 23 21 20 20 21 21 22 23 23 24 24 25 25 26 27 27 27 28 28 29 29 29 28 27 26 26
7 9 10 11 12 13 14 14 14 14 16 17 18 18 18 19 20 21 22 23 23 23 23 22 20 21 22 23 23 23 24 23 24 25 25 25 25 26 26 27 27 28 28 28 27 27 27 26 26
6 7 8 9 11 12 13 14 14 15 16 18 19 20 20 20 21 22 23 23 24 24 23 21 21 22 22 22 23 23 24 24 24 24 25 26 26 26 27 27 28 28 28 27 26 25 25 26 26
7 7 8 9 10 12 13 14 14 15 17 18 19 20 21 21 21 22 23 23 23 23 22 22 23 24 23 23 23 23 24 23 24 24 25 26 26 26 26 26 27 27 26 26 25 24 24 25 24
9 10 10 11 12 13 13 15 15 16 17 18 19 20 21 21 21 22 22 22 22 23 23 24 24 24 23 23 23 23 24 24 24 25 25 25 25 25 25 25 25 25 24 24 24 24 24 23 23
11 12 12 13 14 14 15 16 16 17 18 18 19 20 21 21 21 22 21 22 22 23 24 24 24 24 23 24 24 24 24 24 25 25 25 25 25 24 24 24 24 24 24 24 24 23 23 23 23
13 13 14 15 16 16 16 17 18 19 19 19 19 21 21 21 21 21 21 22 22 23 24 24 24 25 24 24 24 24 25 25 25 25 25 25 24 23 23 23 23 23 23 23 23 23 23 23 23
15 16 16 17 17 17 17 17 17 18 18 18 19 21 22 22 22 21 21 21 22 23 23 23 23 25 25 25 24 25 25 24 24 24 24 24 23 23 23 22 23 22 22 22 22 22 21 22 22
15 16 16 17 18 18 17 17 17 18 18 18 19 20 21 21 21 21 21 22 23 23 23 23 23 22 23 23 24 24 24 24 23 23 24 23 22 22 22 22 22 22 22 22 22 22 22 22 22
16 17 17 18 18 18 18 17 18 19 20 19 19 20 21 21 21 21 22 23 22 22 23 23 22 22 22 22 21 22 23 23 23 23 23 22 21 21 22 22 22 22 22 22 22 22 23 23 22
16 17 17 18 18 17 17 17 17 18 19 19 20 21 20 20 21 22 23 22 22 22 22 23 23 22 22 21 21 22 22 22 23 23 23 22 22 22 22 21 21 21 21 21 22 22 22 21 21
Wind_Direction
233 233 231 230 229 228 224 228 239 254 262 270 275 279 292 301 300 304 310 315 324 322 321 315 315 317 317 314 310 313 313 311 309 308 308 308 307 306 307 305 304 303 300 300 300 298 298 298 296
234 233 232 232 233 231 228 233 237 246 256 265 266 274 286 303 305 300 303 307 307 309 311 310 309 310 310 309 306 307 307 305 304 305 305 306 305 303 302 302 301 300 299 297 296 295 297 297 296
233 231 233 232 232 231 229 235 237 240 247 257 266 269 282 297 306 305 301 299 300 303 304 308 305 306 307 304 302 303 301 300 301 303 304 303 303 300 299 298 297 297 297 296 295 295 294 294 293
232 230 232 230 229 232 231 232 236 240 248 259 269 270 277 290 298 301 299 296 294 297 301 303 301 302 304 303 302 301 301 301 303 303 302 301 300 299 298 297 296 296 295 295 295 294 293 292 290
232 232 234 231 229 229 231 235 238 238 246 257 266 273 280 288 294 297 298 295 294 297 299 301 299 299 299 300 301 301 301 301 303 303 302 301 299 296 296 296 295 294 293 292 292 291 290 289 289
231 231 231 229 228 229 235 237 238 241 248 258 268 275 284 288 293 299 300 298 298 299 299 300 299 297 296 298 301 302 301 300 300 300 300 300 300 297 293 293 293 293 292 291 290 288 288 287 287
229 229 228 230 230 231 235 238 241 243 249 259 271 275 279 285 292 298 301 299 299 299 299 299 297 295 294 293 295 299 299 298 298 298 296 297 296 295 292 291 293 291 291 290 289 288 287 287 286
228 229 229 234 234 229 232 236 241 246 250 259 266 272 278 280 290 296 295 292 295 300 299 299 300 297 299 294 294 298 299 297 295 295 294 296 296 296 293 288 290 290 291 290 290 290 288 287 286
228 230 232 233 232 230 233 238 239 246 254 257 263 268 276 278 283 291 293 289 294 298 299 299 301 300 295 292 296 299 299 296 295 296 297 295 295 295 294 290 288 288 288 287 287 288 288 288 287
230 232 232 230 230 233 232 236 243 250 254 255 257 264 271 275 279 285 292 293 295 300 300 297 297 297 295 296 297 297 298 295 293 295 295 293 293 292 290 288 287 286 286 287 287 287 287 287 287
231 230 229 228 232 232 234 241 245 248 250 254 261 261 269 277 282 287 291 293 294 300 301 295 294 297 297 297 297 297 297 294 292 293 293 291 291 290 289 288 287 287 286 287 287 286 285 286 286
223 227 226 225 231 236 239 237 240 248 256 258 261 269 273 277 283 287 292 295 297 298 299 300 298 299 299 298 299 296 295 293 291 292 292 292 291 291 291 289 286 287 287 287 287 285 285 285 284
220 221 224 222 228 234 236 239 242 247 254 259 263 268 274 278 283 284 289 295 299 299 298 297 297 298 299 298 295 294 293 294 293 293 294 292 291 291 292 291 291 291 288 287 286 285 285 284 283
211 219 228 227 233 238 239 240 246 249 257 260 263 269 276 278 279 284 292 297 299 299 298 298 298 298 298 296 293 292 293 293 293 293 294 294 293 292 293 293 292 293 290 290 288 285 285 282 283
213 216 227 234 237 245 248 247 253 258 260 264 269 275 279 282 284 285 291 295 295 294 296 295 295 294 294 293 293 292 292 292 295 294 293 294 294 295 294 294 293 294 292 291 289 286 285 283 281
220 222 227 231 239 245 250 250 251 260 264 271 277 283 283 285 286 285 289 291 291 291 293 292 290 291 293 293 293 293 293 293 295 295 294 295 296 296 295 295 294 293 293 293 292 290 289 287 283
230 234 235 236 240 245 250 254 258 267 269 274 278 281 284 284 287 287 290 292 291 290 290 290 289 291 292 290 290 292 293 293 295 294 295 296 296 297 297 296 294 293 292 293 293 293 291 288 286
244 246 246 246 247 251 255 259 265 270 270 272 276 280 286 286 286 287 289 291 290 290 290 290 291 292 291 288 289 293 293 294 295 295 294 295 296 297 298 297 296 295 294 295 295 295 291 290 287
247 249 249 253 256 258 260 262 267 271 273 275 279 283 286 285 285 287 289 290 292 291 292 291 291 290 289 290 291 293 294 295 298 299 297 296 297 298 298 297 297 296 296 296 296 295 293 291 288
259 257 259 260 263 265 264 267 271 274 276 281 286 287 286 286 286 287 289 290 294 294 293 292 291 292 292 292 293 294 293 293 295 297 297 297 298 298 298 298 298 297 297 296 296 295 294 292 291
271 268 269 272 271 269 267 270 275 279 283 286 289 290 290 290 289 287 289 291 292 293 293 293 294 297 297 293 292 293 294 292 293 296 297 298 299 299 301 301 300 299 298 296 294 294 293 293 292
286 284 283 283 280 277 274 274 279 285 288 288 289 290 291 290 290 291 292 291 291 292 295 295 297 298 296 294 294 296 296 292 296 297 298 299 299 299 299 299 301 300 299 297 294 292 292 292 291
294 292 292 291 288 285 283 282 285 289 292 292 293 293 293 292 293 295 295 294 292 293 296 295 296 296 296 297 295 294 295 295 299 298 298 298 299 299 299 300 302 302 300 298 296 294 293 292 290
304 303 304 302 296 292 291 290 293 295 296 295 297 298 298 297 295 296 296 296 296 295 295 294 295 295 296 296 294 294 296 298 300 299 299 298 299 300 300 300 301 301 300 299 297 297 294 295 292
313 307 305 303 301 298 297 298 304 300 300 300 298 299 299 299 297 297 297 298 297 297 297 294 294 295 295 295 293 294 296 299 300 300 299 298 299 299 300 300 301 301 301 301 299 299 298 295 294
314 312 309 307 308 302 301 301 304 302 301 300 298 300 300 300 298 298 299 298 297 298 297 296 294 294 292 293 292 294 296 299 302 302 300 298 299 300 301 300 302 303 303 302 301 299 298 296 294
314 311 307 304 304 301 302 303 302 302 303 301 298 301 302 300 298 298 299 297 298 299 298 298 300 295 291 291 293 298 300 302 304 304 303 301 300 302 302 302 303 303 303 303 303 301 299 299 296
315 313 309 305 306 303 303 304 305 303 303 303 300 303 303 301 299 298 299 297 300 301 302 302 305 306 299 296 297 299 302 305 306 306 306 304 301 301 302 303 303 303 303 302 302 301 301 301 299
316 315 312 308 307 306 306 307 307 303 303 305 304 303 302 301 300 302 302 299 299 302 303 307 306 307 307 305 303 302 304 305 306 307 306 306 304 304 305 304 302 302 301 302 303 303 303 302 301
318 315 312 309 308 306 308 308 307 303 302 304 306 306 304 305 303 302 303 300 300 304 307 308 306 306 306 304 305 305 305 306 306 306 305 305 305 307 307 305 304 304 303 303 303 304 305 302 301
Height
5871 5873 5874 5876 5878 5879 5879 5880 5880 5880 5881 5882 5882 5883 5883 5884 5885 5888 5886 5884 5884 5884 5883 5883 5883 5882 5882 5881 5880 5879 5879 5879 5878 5878 5878 5877 5877 5876 5876 5875 5875 5874 5874 5873 5873 5872 5872 5871 5871
5869 5871 5873 5874 5876 5877 5878 5879 5879 5879 5880 5881 5882 5882 5882 5882 5883 5884 5883 5883 5883 5883 5882 5882 5881 5880 5880 5879 5878 5878 5877 5876 5876 5875 5875 5875 5874 5874 5873 5873 5872 5871 5871 5870 5870 5869 5869 5868 5868
5867 5868 5871 5872 5874 5876 5877 5877 5878 5878 5879 5880 5880 5881 5882 5882 5882 5882 5882 5881 5881 5881 5881 5880 5879 5878 5878 5877 5877 5876 5875 5874 5874 5873 5872 5872 5871 5871 5870 5870 5869 5869 5868 5867 5867 5866 5866 5865 5864
5864 5867 5869 5871 5872 5874 5875 5875 5876 5876 5877 5878 5879 5879 5880 5881 5880 5880 5880 5880 5879 5879 5879 5878 5877 5877 5876 5875 5874 5874 5873 5872 5871 5871 5870 5869 5868 5868 5867 5867 5866 5865 5865 5864 5863 5863 5862 5861 5861
5862 5864 5866 5868 5870 5872 5872 5873 5874 5875 5875 5876 5877 5878 5878 5879 5878 5878 5878 5877 5877 5877 5877 5876 5875 5875 5874 5873 5872 5872 5871 5870 5869 5868 5867 5866 5866 5865 5864 5864 5863 5862 5861 5860 5860 5859 5858 5857 5857
5860 5862 5864 5866 5868 5870 5870 5871 5872 5873 5874 5875 5875 5876 5877 5877 5877 5876 5876 5875 5875 5875 5875 5874 5873 5872 5871 5871 5870 5869 5869 5868 5867 5866 5865 5864 5863 5862 5861 5860 5859 5858 5857 5856 5855 5854 5853 5853 5852
5858 5859 5862 5864 5866 5867 5869 5869 5870 5871 5872 5873 5874 5875 5875 5875 5875 5874 5874 5873 5873 5873 5872 5871 5870 5869 5869 5868 5868 5867 5866 5865 5864 5863 5862 5861 5860 5858 5857 5856 5855 5854 5853 5852 5851 5850 5849 5848 5847
5855 5858 5860 5862 5864 5865 5866 5866 5867 5869 5870 5871 5872 5873 5873 5873 5872 5872 5871 5871 5871 5870 5870 5869 5868 5867 5866 5866 5865 5864 5863 5862 5861 5860 5858 5858 5856 5855 5853 5852 5852 5850 5849 5848 5847 5845 5844 5843 5842
5853 5857 5858 5860 5861 5863 5863 5864 5865 5867 5868 5869 5869 5870 5870 5870 5870 5870 5869 5868 5868 5867 5867 5866 5866 5865 5863 5863 5862 5861 5860 5859 5858 5857 5855 5854 5853 5851 5850 5848 5847 5846 5845 5843 5842 5841 5840 5838 5837
5852 5854 5856 5858 5859 5860 5861 5862 5864 5865 5866 5866 5867 5867 5867 5867 5867 5867 5867 5866 5865 5865 5864 5863 5863 5862 5861 5860 5859 5858 5857 5855 5854 5853 5852 5851 5849 5847 5846 5844 5843 5841 5840 5839 5837 5836 5834 5833 5832
5850 5852 5854 5856 5856 5858 5859 5860 5861 5862 5863 5864 5864 5864 5864 5865 5865 5865 5864 5864 5863 5862 5861 5860 5859 5859 5858 5856 5855 5854 5853 5852 5850 5849 5848 5846 5845 5843 5841 5840 5838 5836 5835 5834 5832 5830 5829 5828 5826
5849 5850 5852 5853 5854 5856 5857 5858 5859 5860 5861 5861 5861 5861 5862 5863 5862 5862 5861 5860 5860 5859 5858 5857 5856 5855 5854 5852 5852 5850 5849 5848 5847 5845 5843 5842 5840 5839 5837 5835 5833 5832 5830 5828 5827 5825 5824 5822 5821
5847 5849 5850 5852 5853 5854 5855 5856 5857 5857 5858 5859 5859 5859 5859 5859 5859 5858 5858 5857 5856 5856 5855 5853 5853 5852 5850 5849 5848 5847 5846 5844 5842 5840 5839 5837 5835 5834 5832 5830 5828 5826 5824 5823 5821 5819 5817 5816 5815
5846 5848 5849 5850 5851 5852 5854 5854 5855 5855 5855 5856 5856 5856 5856 5856 5855 5855 5855 5854 5853 5852 5851 5850 5848 5848 5847 5845 5845 5843 5842 5840 5838 5836 5834 5832 5830 5829 5827 5825 5823 5821 5819 5817 5815 5813 5811 5809 5808
5845 5847 5848 5849 5850 5851 5852 5852 5853 5852 5852 5852 5853 5853 5853 5852 5852 5852 5851 5850 5849 5848 5847 5846 5844 5843 5842 5841 5840 5839 5837 5835 5833 5831 5829 5827 5826 5824 5822 5820 5817 5815 5813 5811 5808 5806 5803 5802 5801
5845 5847 5848 5848 5848 5849 5851 5851 5851 5850 5850 5850 5850 5850 5850 5849 5849 5848 5847 5847 5846 5845 5843 5842 5840 5839 5838 5837 5835 5834 5832 5830 5829 5827 5824 5822 5821 5819 5816 5814 5812 5810 5807 5805 5802 5800 5798 5796 5794
5845 5845 5846 5847 5847 5847 5848 5848 5849 5848 5847 5847 5847 5847 5847 5846 5845 5844 5843 5843 5842 5840 5839 5838 5836 5834 5833 5832 5831 5829 5827 5825 5823 5821 5820 5817 5815 5813 5810 5808 5806 5803 5801 5799 5796 5794 5791 5789 5787
5844 5844 5844 5844 5844 5845 5845 5846 5846 5845 5845 5845 5845 5844 5843 5842 5841 5840 5840 5839 5837 5836 5835 5833 5831 5830 5828 5827 5826 5824 5822 5820 5818 5816 5814 5812 5810 5807 5804 5802 5799 5797 5794 5792 5789 5787 5785 5782 5780
5842 5842 5842 5842 5842 5842 5842 5843 5843 5843 5843 5842 5842 5841 5840 5839 5838 5837 5836 5834 5833 5831 5829 5827 5826 5825 5824 5822 5821 5819 5817 5815 5813 5811 5808 5806 5804 5801 5798 5796 5793 5790 5787 5785 5782 5780 5777 5775 5773
5841 5841 5840 5840 5840 5840 5840 5840 5840 5840 5840 5839 5838 5837 5836 5835 5834 5832 5831 5830 5828 5826 5824 5822 5820 5818 5818 5817 5815 5813 5811 5809 5807 5805 5802 5800 5797 5795 5792 5789 5786 5783 5780 5778 5775 5773 5771 5769 5767
5840 5839 5839 5838 5838 5838 5838 5838 5838 5837 5837 5836 5834 5833 5832 5830 5829 5827 5826 5824 5822 5821 5819 5816 5815 5813 5812 5811 5809 5807 5805 5803 5801 5799 5797 5794 5791 5788 5785 5782 5779 5776 5773 5771 5768 5766 5764 5762 5760
5839 5838 5837 5836 5836 5835 5836 5835 5835 5834 5834 5832 5831 5829 5828 5826 5824 5823 5821 5819 5817 5816 5814 5812 5810 5809 5807 5805 5804 5802 5800 5798 5796 5793 5791 5788 5785 5782 5779 5776 5773 5769 5766 5764 5762 5759 5758 5756 5754
5837 5836 5836 5835 5834 5833 5833 5833 5833 5831 5830 5829 5827 5825 5823 5822 5820 5818 5816 5814 5812 5810 5809 5807 5806 5804 5802 5800 5798 5796 5794 5792 5790 5788 5785 5782 5779 5776 5773 5770 5767 5763 5761 5758 5756 5754 5752 5750 5748
5835 5835 5834 5833 5832 5831 5831 5830 5829 5828 5826 5825 5823 5821 5818 5817 5815 5813 5811 5809 5807 5806 5804 5802 5800 5798 5796 5795 5793 5791 5789 5787 5785 5782 5778 5775 5772 5770 5767 5763 5761 5758 5755 5752 5750 5748 5746 5744 5742
5834 5833 5832 5830 5829 5828 5827 5826 5826 5824 5822 5820 5818 5816 5814 5812 5810 5808 5806 5804 5803 5801 5799 5796 5794 5793 5791 5789 5787 5785 5783 5781 5778 5775 5772 5769 5767 5764 5761 5758 5755 5752 5749 5747 5744 5742 5740 5738 5736
5831 5831 5830 5827 5826 5825 5824 5822 5822 5820 5818 5816 5814 5812 5809 5807 5805 5803 5802 5799 5798 5796 5793 5791 5789 5787 5785 5783 5781 5779 5777 5774 5771 5769 5766 5763 5760 5757 5754 5752 5749 5746 5744 5741 5739 5737 5735 5732 5730
5829 5827 5826 5825 5823 5821 5820 5819 5818 5816 5814 5812 5810 5808 5805 5803 5800 5799 5797 5795 5793 5791 5788 5786 5782 5780 5778 5776 5774 5773 5770 5768 5765 5762 5759 5757 5754 5751 5748 5746 5743 5741 5738 5736 5734 5731 5729 5727 5725
5827 5825 5823 5821 5819 5817 5817 5815 5814 5812 5810 5808 5806 5804 5801 5798 5796 5794 5792 5790 5788 5786 5783 5781 5778 5774 5772 5771 5769 5767 5765 5762 5759 5756 5753 5750 5748 5745 5742 5740 5737 5735 5733 5731 5728 5726 5723 5721 5719
5824 5823 5820 5818 5816 5814 5812 5814 5810 5808 5805 5804 5801 5799 5797 5794 5792 5789 5787 5785 5783 5781 5779 5776 5773 5770 5768 5766 5764 5762 5759 5756 5753 5750 5748 5745 5742 5739 5736 5734 5731 5729 5727 5725 5723 5720 5718 5715 5713
5822 5819 5818 5816 5814 5811 5809 5811 5806 5804 5802 5800 5797 5795 5793 5790 5787 5785 5783 5780 5779 5776 5774 5771 5769 5766 5764 5761 5759 5756 5754 5751 5748 5745 5742 5740 5737 5734 5731 5728 5725 5723 5721 5719 5717 5714 5712 5709 5707